EW5833 Weather Reports


Display with metric or nautical units.
time (UTC)temp
F
wind
direction
speed
MPH
gust
MPH
rain 1hr
in
rain 24hr
in
rain mn
in
humidity
%
barometer
mb
20260831064344 67 0 0.0 0.0 0.00 0.75 0.00 97 1016.5
20260831063344 67 0 0.0 0.0 0.00 0.75 0.00 97 1016.5
20260831062345 67 0 0.0 0.0 0.00 0.75 0.00 97 1016.5
20260831061345 67 0 0.0 0.0 0.00 0.75 0.00 97 1016.5
20260831060835 67 0 0.0 0.0 0.00 0.75 0.00 97 1016.5
20260831060345 67 0 0.0 0.0 0.00 0.75 0.00 97 1016.5
20260831055810 68 0 0.0 0.0 0.00 0.75 0.00 96 1016.6
20260831055330 68 0 0.0 0.0 0.00 0.75 0.00 96 1016.6
20260831054330 68 0 0.0 0.0 0.00 0.75 0.00 96 1016.7
20260831053330 68 0 0.0 3.0 0.00 0.75 0.00 96 1016.6
20260831053248 68 0 0.0 2.0 0.00 0.75 0.00 97 1016.6
20260831052330 68 0 0.0 2.0 0.00 0.75 0.00 97 1016.6
20260831051806 68 0 0.0 2.0 0.00 0.75 0.00 97 1016.6
20260831051541 68 0 0.0 2.0 0.00 0.75 0.00 97 1016.6
20260831050330 68 0 0.0 2.0 0.00 0.75 0.00 97 1016.7
20260831045329 68 0 0.0 0.0 0.00 0.75 0.00 97 1016.8
20260831044330 68 0 0.0 2.0 0.00 0.75 0.00 97 1016.8
20260831043330 68 178 0.0 3.0 0.00 0.75 0.00 96 1016.8
20260831042811 67 0 0.0 3.0 0.00 0.76 0.00 97 1016.7
20260831042330 67 0 0.0 3.0 0.00 0.76 0.00 97 1016.7
20260831042254 67 0 0.0 2.0 0.00 0.76 0.00 97 1016.7
20260831041330 67 0 0.0 2.0 0.00 0.76 0.00 97 1016.7
20260831040819 67 0 0.0 2.0 0.00 0.76 0.00 97 1016.8
20260831040331 67 0 0.0 2.0 0.00 0.76 0.00 97 1016.8
20260831035332 67 0 0.0 2.0 0.00 0.76 0.76 97 1016.8
20260831034330 67 0 0.0 2.0 0.00 0.76 0.76 97 1016.9
20260831033329 67 128 0.0 1.0 0.00 0.76 0.76 98 1016.8
20260831032331 67 0 0.0 4.0 0.00 0.76 0.76 98 1016.8
20260831032253 67 194 0.0 4.0 0.00 0.76 0.76 98 1016.7
20260831031542 67 194 0.0 4.0 0.00 0.76 0.76 98 1016.7
20260831030330 67 0 0.0 3.0 0.00 0.76 0.76 98 1016.7
20260831025319 67 0 0.0 1.0 0.00 0.76 0.76 98 1016.7
20260831024303 67 205 0.0 2.0 0.00 0.76 0.76 98 1016.7
20260831023304 67 142 0.0 2.0 0.00 0.76 0.76 98 1016.7
20260831022747 67 189 0.0 2.0 0.00 0.76 0.76 98 1016.6
20260831022306 67 189 0.0 2.0 0.00 0.76 0.76 98 1016.6
20260831022222 67 0 0.0 2.0 0.00 0.76 0.76 98 1016.7
20260831021305 67 0 0.0 2.0 0.00 0.76 0.76 98 1016.7
20260831020303 67 178 0.0 2.0 0.00 0.76 0.76 97 1016.7
20260831015306 67 228 0.0 2.0 0.00 0.76 0.76 97 1016.7
20260831014744 67 0 0.0 2.0 0.00 0.76 0.76 97 1016.6
20260831014513 67 0 0.0 2.0 0.00 0.76 0.76 97 1016.6
20260831013302 67 229 1.0 4.0 0.00 0.76 0.76 97 1016.6
20260831012738 67 185 1.0 3.0 0.00 0.76 0.76 97 1016.6
20260831012305 67 185 1.0 3.0 0.00 0.76 0.76 97 1016.6
20260831011302 67 0 0.0 3.0 0.00 0.76 0.76 97 1016.6
20260831010746 67 201 1.0 2.0 0.00 0.76 0.76 97 1016.4
20260831010512 67 201 1.0 2.0 0.00 0.76 0.76 97 1016.4
20260831005306 68 209 2.0 4.0 0.00 0.76 0.76 96 1016.4
20260831005226 68 227 1.0 3.0 0.00 0.76 0.76 96 1016.2
20260831004514 68 227 1.0 3.0 0.00 0.76 0.76 96 1016.2
20260831003308 68 186 1.0 2.0 0.00 0.76 0.76 96 1016.1
20260831002737 68 0 0.0 2.0 0.00 0.76 0.76 96 1016.4
20260831002514 68 0 0.0 2.0 0.00 0.76 0.76 96 1016.4
20260831001742 68 153 0.0 2.0 0.00 0.76 0.76 96 1016.4
20260831001514 68 153 0.0 2.0 0.00 0.76 0.76 96 1016.4
20260831000303 68 0 0.0 0.0 0.00 0.76 0.76 96 1016.2
20260830235305 69 0 0.0 2.0 0.00 0.76 0.76 96 1016.1
20260830234302 69 232 1.0 4.0 0.00 0.76 0.76 95 1016.4
20260830233302 69 200 2.0 5.0 0.00 0.76 0.76 96 1016.4
20260830232305 69 249 1.0 4.0 0.00 0.76 0.76 96 1016.2
20260830231739 69 119 1.0 3.0 0.00 0.76 0.76 97 1016.6
20260830231303 69 119 1.0 3.0 0.00 0.76 0.76 97 1016.6
20260830230303 69 259 0.0 2.0 0.00 0.76 0.76 97 1016.8
20260830230228 69 122 0.0 2.0 0.00 0.76 0.76 97 1016.9
20260830225514 69 122 0.0 2.0 0.00 0.76 0.76 97 1016.9
20260830224749 69 103 0.0 2.0 0.00 0.76 0.76 97 1017.0
20260830224302 69 103 0.0 2.0 0.00 0.76 0.76 97 1017.0
20260830223304 69 0 0.0 2.0 0.00 0.76 0.76 96 1017.3
20260830222306 69 0 0.0 1.0 0.00 0.76 0.76 96 1017.2
20260830221303 69 0 0.0 2.0 0.00 0.76 0.76 95 1017.3
20260830220303 69 0 0.0 2.0 0.00 0.76 0.76 95 1017.1
20260830215305 69 0 1.0 3.0 0.00 0.76 0.76 95 1016.9
20260830214303 69 0 0.0 3.0 0.00 0.76 0.76 96 1016.9
20260830213304 69 0 1.0 3.0 0.00 0.76 0.76 95 1017.1
20260830212740 70 134 1.0 4.0 0.00 0.76 0.76 95 1017.0
20260830212513 70 134 1.0 4.0 0.00 0.76 0.76 95 1017.0
20260830211302 70 0 1.0 3.0 0.00 0.76 0.76 95 1016.8
20260830210302 70 188 0.0 4.0 0.00 0.76 0.76 95 1016.7
20260830205305 69 0 1.0 3.0 0.00 0.76 0.76 96 1016.6
20260830204304 69 238 1.0 3.0 0.00 0.76 0.76 95 1016.7
20260830203739 70 0 0.0 2.0 0.00 0.75 0.75 95 1016.6
20260830203302 70 0 0.0 2.0 0.00 0.75 0.75 95 1016.6
20260830202305 69 0 1.0 4.0 0.00 0.75 0.75 95 1016.7
20260830201303 69 0 1.0 3.0 0.00 0.75 0.75 95 1016.7
20260830200303 69 125 1.0 3.0 0.00 0.75 0.75 95 1016.7
20260830195305 69 133 2.0 4.0 0.00 0.75 0.75 95 1016.9
20260830194302 69 0 0.0 1.0 0.00 0.75 0.75 95 1016.8
20260830193257 69 231 0.0 2.0 0.00 0.75 0.75 95 1016.8
20260830193216 69 189 1.0 6.0 0.00 0.75 0.75 96 1016.8
20260830192508 69 189 1.0 6.0 0.00 0.75 0.75 96 1016.8
20260830192241 69 118 2.0 4.0 0.00 0.75 0.75 95 1016.9
20260830191257 69 118 2.0 4.0 0.00 0.75 0.75 95 1016.9
20260830190256 68 101 2.0 5.0 0.01 0.75 0.75 95 1017.0
20260830185257 68 0 2.0 5.0 0.01 0.75 0.75 96 1017.0
20260830184739 67 0 1.0 3.0 0.01 0.75 0.75 97 1017.4
20260830184508 67 0 1.0 3.0 0.01 0.75 0.75 97 1017.4
20260830183243 67 0 0.0 3.0 0.01 0.75 0.75 97 1017.5
20260830182244 67 0 0.0 1.0 0.01 0.75 0.75 97 1017.5
20260830181244 67 100 1.0 3.0 0.01 0.75 0.75 97 1017.4
20260830180248 67 0 0.0 1.0 0.00 0.74 0.74 97 1017.4
20260830175245 67 0 0.0 2.0 0.00 0.74 0.74 96 1017.5
20260830174725 66 0 1.0 7.0 0.00 0.74 0.74 96 1017.4
20260830174230 66 0 1.0 7.0 0.00 0.74 0.74 96 1017.4
20260830173231 66 140 2.0 3.0 0.01 0.74 0.74 96 1017.3
20260830172231 67 84 2.0 4.0 0.03 0.74 0.74 96 1017.3
20260830171230 66 0 2.0 4.0 0.04 0.74 0.74 97 1017.1
20260830170710 66 152 2.0 5.0 0.05 0.74 0.74 97 1017.4
20260830170229 66 152 2.0 5.0 0.05 0.74 0.74 97 1017.4
20260830165231 65 159 0.0 2.0 0.07 0.74 0.74 98 1017.9
20260830164230 65 136 2.0 4.0 0.08 0.74 0.74 97 1018.0
20260830163705 65 165 2.0 4.0 0.09 0.73 0.72 97 1018.0
20260830163441 65 165 2.0 4.0 0.09 0.73 0.72 97 1018.0
20260830162229 65 223 2.0 4.0 0.09 0.71 0.71 97 1017.9
20260830161230 65 167 1.0 5.0 0.09 0.70 0.70 97 1018.2
20260830160230 65 139 1.0 3.0 0.11 0.69 0.69 98 1018.7
20260830155230 65 0 1.0 3.0 0.09 0.67 0.67 98 1018.9
20260830154703 65 134 2.0 4.0 0.08 0.66 0.66 98 1018.6
20260830154428 65 134 2.0 4.0 0.08 0.66 0.66 98 1018.6
20260830153217 65 140 1.0 3.0 0.07 0.63 0.63 98 1018.8
20260830152216 65 139 1.0 3.0 0.08 0.62 0.62 98 1018.9
20260830151217 65 142 1.0 3.0 0.09 0.61 0.61 98 1019.0
20260830150715 65 108 0.0 2.0 0.10 0.59 0.59 98 1019.1
20260830150217 65 108 0.0 2.0 0.10 0.59 0.59 98 1019.1
20260830145217 65 0 0.0 2.0 0.11 0.58 0.58 98 1019.4
20260830144202 65 0 0.0 2.0 0.14 0.57 0.57 98 1019.3
20260830143201 65 0 0.0 2.0 0.15 0.56 0.56 98 1019.0
20260830142201 65 0 0.0 0.0 0.15 0.54 0.54 98 1019.1
20260830141643 65 0 0.0 2.0 0.17 0.52 0.52 98 1019.0
20260830141415 65 0 0.0 2.0 0.17 0.52 0.52 98 1019.0
20260830140148 65 155 0.0 2.0 0.18 0.49 0.48 98 1018.9
20260830135148 65 0 0.0 0.0 0.19 0.46 0.46 98 1018.9
20260830134134 65 0 0.0 0.0 0.19 0.43 0.43 98 1019.0
20260830134045 65 0 0.0 0.0 0.20 0.41 0.41 98 1019.2
20260830133342 65 0 0.0 0.0 0.20 0.41 0.41 98 1019.2
20260830132130 65 0 0.0 0.0 0.20 0.39 0.38 98 1019.1
20260830131130 65 0 0.0 0.0 0.20 0.35 0.34 98 1018.9
20260830130624 66 0 0.0 1.0 0.16 0.31 0.30 98 1018.8
20260830130130 66 0 0.0 1.0 0.16 0.31 0.30 98 1018.8
20260830125129 66 0 0.0 1.0 0.15 0.28 0.28 98 1018.6
20260830124130 66 0 0.0 1.0 0.12 0.25 0.25 98 1018.9
20260830123130 66 0 0.0 2.0 0.08 0.21 0.20 98 1019.0
20260830122612 66 0 0.0 0.0 0.06 0.19 0.19 98 1019.6
20260830122342 66 0 0.0 0.0 0.06 0.19 0.19 98 1019.6
20260830121610 66 0 0.0 1.0 0.02 0.15 0.15 98 1019.1
20260830121129 66 0 0.0 1.0 0.02 0.15 0.15 98 1019.1
20260830120131 66 0 1.0 3.0 0.02 0.15 0.14 98 1018.8
20260830115130 65 133 0.0 3.0 0.00 0.13 0.13 98 1018.8
20260830114130 66 0 0.0 1.0 0.00 0.13 0.13 98 1019.0
20260830113129 65 0 0.0 2.0 0.00 0.13 0.13 98 1018.5
20260830112130 65 0 0.0 0.0 0.00 0.13 0.13 98 1018.0
20260830111610 65 0 0.0 0.0 0.01 0.13 0.13 98 1017.9
20260830111341 65 0 0.0 0.0 0.01 0.13 0.13 98 1017.9
20260830110130 65 0 0.0 0.0 0.01 0.13 0.13 98 1017.8
20260830105130 66 0 0.0 0.0 0.01 0.13 0.13 98 1017.9
20260830104616 66 0 0.0 0.0 0.03 0.13 0.13 98 1017.9
20260830104343 66 0 0.0 0.0 0.03 0.13 0.13 98 1017.9
20260830103131 66 0 0.0 0.0 0.03 0.13 0.13 98 1017.7
20260830102618 66 0 0.0 2.0 0.04 0.13 0.13 98 1017.9
20260830102131 66 0 0.0 2.0 0.04 0.13 0.13 98 1017.9
20260830101130 66 0 0.0 2.0 0.03 0.12 0.12 98 1017.9
20260830100131 66 252 0.0 2.0 0.03 0.12 0.12 98 1017.8
20260830095603 66 0 0.0 2.0 0.04 0.12 0.12 98 1017.8
20260830095341 66 0 0.0 2.0 0.04 0.12 0.12 98 1017.8
20260830094129 66 129 1.0 2.0 0.03 0.10 0.10 98 1017.9
20260830093129 66 0 0.0 1.0 0.05 0.10 0.09 98 1018.4
20260830092129 65 0 1.0 4.0 0.08 0.09 0.09 98 1018.1
20260830091611 65 0 0.0 2.0 0.08 0.09 0.09 98 1018.2
20260830091131 65 0 0.0 2.0 0.08 0.09 0.09 98 1018.2
20260830090615 65 0 0.0 1.0 0.08 0.09 0.09 97 1018.2
20260830090130 65 0 0.0 1.0 0.08 0.09 0.09 97 1018.2
20260830085607 65 0 0.0 1.0 0.07 0.08 0.08 97 1018.5
20260830085340 65 0 0.0 1.0 0.07 0.08 0.08 97 1018.5
20260830084130 65 65 0.0 1.0 0.06 0.07 0.07 97 1018.5
20260830083132 65 0 0.0 0.0 0.04 0.05 0.04 97 1019.0
20260830082131 65 0 0.0 0.0 0.00 0.01 0.01 97 1019.0
20260830081125 65 0 0.0 0.0 0.00 0.01 0.01 97 1019.0
20260830080125 65 0 0.0 0.0 0.00 0.01 0.01 97 1018.9
20260830075125 65 0 0.0 0.0 0.00 0.01 0.01 97 1018.7
20260830074125 65 0 0.0 0.0 0.00 0.01 0.01 97 1018.7
20260830073125 65 0 0.0 0.0 0.00 0.01 0.01 97 1019.1
20260830072109 65 0 0.0 0.0 0.00 0.01 0.01 96 1019.1
20260830072036 64 31 0.0 0.0 0.00 0.01 0.01 96 1019.1
20260830071322 64 31 0.0 0.0 0.00 0.01 0.01 96 1019.1
20260830070109 64 0 0.0 0.0 0.00 0.01 0.01 96 1019.1
20260830065807 64 0 0.0 0.0 0.00 0.01 0.01 96 1019.0
20260830065611 64 0 0.0 0.0 0.00 0.01 0.01 96 1019.0